TimeCST,TemperatureF,Dew PointF,Humidity,Sea Level PressureIn,VisibilityMPH,Wind Direction,Wind SpeedMPH,Gust SpeedMPH,PrecipitationIn,Events,Conditions,WindDirDegrees,DateUTC
12:18 AM,32.0,30.2,93,30.16,3.0,Calm,Calm,-,N/A,,Clear,0,2012-11-08 06:18:00
12:38 AM,30.2,30.2,100,30.16,2.5,Calm,Calm,-,N/A,,Clear,0,2012-11-08 06:38:00
1:04 AM,30.2,30.2,100,30.16,2.5,West,4.6,-,N/A,,Clear,270,2012-11-08 07:04:00
1:17 AM,30.2,28.4,93,30.17,3.0,West,3.5,-,N/A,,Clear,270,2012-11-08 07:17:00
1:26 AM,32.0,30.2,93,30.17,2.5,Calm,Calm,-,N/A,,Clear,0,2012-11-08 07:26:00
1:46 AM,32.0,28.4,87,30.17,1.5,Calm,Calm,-,N/A,,Clear,0,2012-11-08 07:46:00
1:53 AM,33.1,32.0,96,30.18,1.2,Calm,Calm,-,N/A,,Clear,0,2012-11-08 07:53:00
2:05 AM,30.2,30.2,100,30.17,0.5,Calm,Calm,-,N/A,Fog,Light Freezing Fog,0,2012-11-08 08:05:00
2:44 AM,30.2,28.4,93,30.17,2.0,Calm,Calm,-,N/A,,Scattered Clouds,0,2012-11-08 08:44:00
2:53 AM,32.0,28.9,88,30.19,1.5,Calm,Calm,-,N/A,,Mostly Cloudy,0,2012-11-08 08:53:00
3:10 AM,30.2,30.2,100,30.17,0.5,Calm,Calm,-,N/A,Fog,Light Freezing Fog,0,2012-11-08 09:10:00
3:27 AM,30.2,30.2,100,30.17,1.5,Calm,Calm,-,N/A,,Overcast,0,2012-11-08 09:27:00
3:40 AM,32.0,30.2,93,30.17,2.5,Calm,Calm,-,N/A,,Overcast,0,2012-11-08 09:40:00
3:53 AM,32.0,30.0,92,30.19,2.5,Calm,Calm,-,N/A,,Overcast,0,2012-11-08 09:53:00
4:01 AM,32.0,30.2,93,30.18,3.0,Calm,Calm,-,N/A,,Overcast,0,2012-11-08 10:01:00
4:53 AM,34.0,32.0,92,30.21,4.0,Calm,Calm,-,N/A,,Overcast,0,2012-11-08 10:53:00
5:53 AM,37.0,36.0,96,30.21,3.0,Calm,Calm,-,N/A,,Overcast,0,2012-11-08 11:53:00
6:53 AM,37.0,35.1,93,30.22,2.0,SSW,3.5,-,N/A,,Overcast,210,2012-11-08 12:53:00
7:04 AM,37.4,35.6,93,30.21,1.8,Calm,Calm,-,N/A,,Overcast,0,2012-11-08 13:04:00
7:27 AM,37.4,35.6,93,30.21,1.2,Calm,Calm,-,N/A,,Overcast,0,2012-11-08 13:27:00
7:53 AM,37.9,36.0,93,30.24,1.2,SW,3.5,-,N/A,,Overcast,220,2012-11-08 13:53:00
8:28 AM,37.4,37.4,100,30.22,1.2,SSW,3.5,-,N/A,,Overcast,210,2012-11-08 14:28:00
8:53 AM,39.0,37.9,96,30.24,1.5,SSW,3.5,-,N/A,,Overcast,210,2012-11-08 14:53:00
9:53 AM,41.0,39.9,96,30.25,1.8,SSW,5.8,-,N/A,,Overcast,210,2012-11-08 15:53:00
10:53 AM,43.0,39.9,89,30.24,2.5,SSW,5.8,-,N/A,,Overcast,210,2012-11-08 16:53:00
11:07 AM,44.6,39.2,81,30.21,3.0,SW,5.8,-,N/A,,Overcast,230,2012-11-08 17:07:00
11:53 AM,-9999,-9999,N/A,30.20,-9999.0,North,-9999.0,-,N/A,,Unknown,0,2012-11-08 17:53:00
12:44 PM,44.6,35.6,71,30.18,9.0,SSW,9.2,-,N/A,,Overcast,210,2012-11-08 18:44:00
12:53 PM,45.0,36.0,71,30.20,9.0,SSW,8.1,-,N/A,,Overcast,210,2012-11-08 18:53:00
1:53 PM,45.0,36.0,71,30.19,8.0,SW,8.1,-,N/A,,Overcast,230,2012-11-08 19:53:00
2:53 PM,44.1,35.1,71,30.17,7.0,SW,8.1,-,N/A,,Overcast,220,2012-11-08 20:53:00
3:53 PM,44.1,34.0,68,30.17,7.0,South,6.9,-,N/A,,Overcast,190,2012-11-08 21:53:00
4:53 PM,43.0,35.1,74,30.17,7.0,SSW,5.8,-,N/A,,Overcast,200,2012-11-08 22:53:00
5:53 PM,42.1,34.0,73,30.17,7.0,South,3.5,-,N/A,,Mostly Cloudy,190,2012-11-08 23:53:00
6:01 PM,41.0,33.8,76,30.15,7.0,South,3.5,-,N/A,,Scattered Clouds,180,2012-11-09 00:01:00
6:53 PM,39.0,33.1,79,30.16,7.0,South,4.6,-,N/A,,Clear,180,2012-11-09 00:53:00
7:53 PM,37.9,33.1,83,30.16,7.0,South,5.8,-,N/A,,Clear,170,2012-11-09 01:53:00
8:53 PM,37.9,33.1,83,30.15,6.0,South,4.6,-,N/A,,Haze,170,2012-11-09 02:53:00
9:53 PM,37.0,32.0,82,30.15,6.0,SSE,4.6,-,N/A,,Haze,150,2012-11-09 03:53:00
10:53 PM,37.0,33.1,86,30.14,6.0,South,5.8,-,N/A,,Clear,170,2012-11-09 04:53:00
11:53 PM,36.0,32.0,86,30.13,5.0,South,3.5,-,N/A,,Clear,170,2012-11-09 05:53:00